FW5274 Weather Reports


Display with metric or nautical units.
time (UTC)temp
F
wind
direction
speed
MPH
gust
MPH
rain 1hr
in
rain 24hr
in
rain mn
in
humidity
%
barometer
mb
20260504033034 66 45 0.0 3.0 0.00 0.00 0.00 40 1013.1
20260504031535 68 45 2.0 2.0 0.00 0.00 0.00 39 1013.1
20260504030035 69 37 3.0 4.0 0.00 0.00 0.00 38 1013.0
20260504024535 72 22 3.0 4.0 0.00 0.00 0.00 37 1013.0
20260504023137 74 22 3.0 4.0 0.00 0.00 0.00 35 1013.1
20260504013029 80 52 4.0 6.0 0.00 0.00 0.00 28 1013.4
20260504011606 81 43 3.0 7.0 0.00 0.00 0.00 27 1013.6
20260504010106 81 49 4.0 8.0 0.00 0.00 0.00 27 1013.8
20260504004634 0 0 0.0 0.0 0.00 0.00 0.00 100
20260504001607 82 70 4.0 10.0 0.00 0.00 0.00 25 1014.1
20260503224532 81 50 6.0 13.0 0.00 0.00 0.00 26 1015.2
20260503223034 81 39 5.0 10.0 0.00 0.00 0.00 27 1015.5
20260503221534 81 51 6.0 13.0 0.00 0.00 0.00 28 1015.6
20260503220034 80 44 6.0 12.0 0.00 0.00 0.00 28 1015.8
20260503214606 80 60 6.0 18.0 0.00 0.00 0.00 29 1016.0
20260503213029 80 58 8.0 15.0 0.00 0.00 0.00 29 1016.1
20260503211534 80 59 8.0 15.0 0.00 0.00 0.00 30 1016.3
20260503204531 80 65 7.0 12.0 0.00 0.00 0.00 30 1016.7
20260503201531 80 56 6.0 13.0 0.00 0.00 0.00 31 1016.9
20260503200035 80 72 5.0 11.0 0.00 0.00 0.00 31 1017.2
20260503194534 79 40 3.0 10.0 0.00 0.00 0.00 31 1017.4
20260503193152 79 42 6.0 12.0 0.00 0.00 0.00 33 1017.5
20260503191608 78 34 5.0 10.0 0.00 0.00 0.00 34 1017.7
20260503190034 78 46 4.0 10.0 0.00 0.00 0.00 33 1017.8
20260503184609 78 76 2.0 10.0 0.00 0.00 0.00 33 1017.8
20260503183034 77 107 3.0 9.0 0.00 0.00 0.00 33 1017.9
20260503180105 77 53 4.0 8.0 0.00 0.00 0.00 33 1018.2
20260503174608 77 32 4.0 9.0 0.00 0.00 0.00 34 1018.2
20260503173107 76 56 4.0 8.0 0.00 0.00 0.00 34 1018.3
20260503171609 76 43 3.0 7.0 0.00 0.00 0.00 34 1018.3
20260503160107 73 80 0.0 3.0 0.00 0.00 0.00 44 1018.4
20260503120105 57 253 3.0 4.0 0.00 0.00 0.00 53 1017.9
20260503100108 59 255 4.0 5.0 0.00 0.00 0.00 53 1017.9
20260503081606 59 247 3.0 4.0 0.00 0.00 0.00 54 1017.9
20260503071535 60 308 1.0 3.0 0.00 0.00 0.00 55 1017.8
20260503054537 66 65 3.0 5.0 0.00 0.00 0.00 44 1017.6
20260503053036 66 292 2.0 4.0 0.00 0.00 0.00 45 1017.6
20260503051606 66 269 4.0 7.0 0.00 0.00 0.00 45 1017.7
20260503050123 66 261 5.0 7.0 0.00 0.00 0.00 45 1017.6
20260503044531 66 258 5.0 8.0 0.00 0.00 0.00 45 1017.7
20260503043034 67 259 6.0 9.0 0.00 0.00 0.00 44 1017.7
20260503041535 67 244 7.0 12.0 0.00 0.00 0.00 44 1017.7
20260503040041 67 228 7.0 13.0 0.00 0.00 0.00 44 1017.6
20260503034532 67 224 8.0 12.0 0.00 0.00 0.00 44 1017.5